status,avgMeasuredTime,avgSpeed,extID,medianMeasuredTime,TIMESTAMP,vehicleCount,_id,REPORT_ID
OK,101,31,696,101,2014-08-01T07:50:00,2,20746248,185263
OK,152,20,696,152,2014-08-01T07:55:00,1,20746420,185263
OK,105,30,696,105,2014-08-01T08:00:00,4,20746751,185263
OK,85,37,696,85,2014-08-01T08:05:00,4,20747200,185263
OK,86,36,696,86,2014-08-01T08:10:00,1,20747573,185263
OK,111,28,696,111,2014-08-01T08:15:00,2,20748022,185263
OK,142,22,696,142,2014-08-01T08:20:00,3,20748471,185263
OK,142,22,696,142,2014-08-01T08:25:00,5,20748920,185263
OK,127,24,696,127,2014-08-01T08:30:00,6,20749369,185263
OK,83,38,696,83,2014-08-01T08:35:00,4,20749818,185263
OK,94,33,696,94,2014-08-01T08:40:00,2,20750267,185263
OK,75,42,696,75,2014-08-01T08:45:00,1,20750716,185263
OK,93,34,696,93,2014-08-01T08:50:00,4,20751165,185263
OK,93,34,696,93,2014-08-01T08:55:00,4,20751614,185263
OK,65,48,696,65,2014-08-01T09:00:00,0,20752063,185263
OK,110,28,696,110,2014-08-01T09:05:00,3,20752512,185263
OK,110,28,696,110,2014-08-01T09:10:00,6,20752961,185263
OK,117,27,696,117,2014-08-01T09:15:00,2,20753410,185263
OK,126,25,696,126,2014-08-01T09:20:00,1,20753859,185263
OK,97,32,696,97,2014-08-01T09:25:00,3,20754308,185263
OK,98,32,696,98,2014-08-01T09:30:00,4,20754757,185263
OK,99,32,696,99,2014-08-01T09:35:00,1,20755206,185263
OK,93,34,696,93,2014-08-01T09:40:00,6,20755655,185263
OK,96,33,696,96,2014-08-01T09:45:00,4,20756104,185263
OK,137,23,696,137,2014-08-01T09:50:00,1,20756553,185263
OK,104,30,696,104,2014-08-01T09:55:00,3,20757002,185263
OK,82,38,696,82,2014-08-01T10:00:00,4,20757451,185263
OK,135,23,696,135,2014-08-01T10:05:00,7,20757900,185263
OK,135,23,696,135,2014-08-01T10:10:00,6,20758349,185263
OK,66,48,696,66,2014-08-01T10:15:00,2,20758798,185263
OK,98,32,696,98,2014-08-01T10:20:00,4,20759247,185263
OK,104,30,696,104,2014-08-01T10:25:00,7,20759696,185263
OK,73,43,696,73,2014-08-01T10:30:00,7,20760145,185263
OK,73,43,696,73,2014-08-01T10:35:00,1,20760594,185263
OK,146,21,696,146,2014-08-01T10:40:00,1,20761043,185263
OK,130,24,696,130,2014-08-01T10:45:00,3,20761492,185263
OK,130,24,696,130,2014-08-01T10:50:00,3,20761941,185263
OK,115,27,696,115,2014-08-01T10:55:00,4,20762390,185263
OK,129,24,696,129,2014-08-01T11:00:00,2,20762839,185263
OK,160,19,696,160,2014-08-01T11:05:00,1,20763288,185263
OK,113,28,696,113,2014-08-01T11:10:00,2,20763737,185263
OK,74,42,696,74,2014-08-01T11:15:00,3,20764186,185263
OK,82,38,696,82,2014-08-01T11:20:00,3,20764634,185263
OK,144,22,696,144,2014-08-01T11:25:00,2,20765083,185263
OK,116,27,696,116,2014-08-01T11:30:00,2,20765532,185263
OK,100,31,696,100,2014-08-01T11:35:00,1,20765981,185263
OK,132,24,696,132,2014-08-01T11:40:00,6,20766430,185263
OK,132,24,696,132,2014-08-01T11:45:00,6,20766879,185263
OK,116,27,696,116,2014-08-01T11:50:00,5,20767328,185263
OK,125,25,696,125,2014-08-01T11:55:00,5,20767777,185263
OK,110,28,696,110,2014-08-01T12:00:00,2,20768226,185263
OK,96,33,696,96,2014-08-01T12:05:00,1,20768675,185263
OK,110,28,696,110,2014-08-01T12:10:00,3,20769124,185263
OK,121,26,696,121,2014-08-01T12:15:00,2,20769573,185263
OK,81,39,696,81,2014-08-01T12:20:00,3,20770022,185263
OK,81,39,696,81,2014-08-01T12:25:00,3,20770471,185263
OK,126,25,696,126,2014-08-01T12:30:00,1,20770920,185263
OK,128,24,696,128,2014-08-01T12:35:00,1,20771369,185263
OK,128,24,696,128,2014-08-01T12:40:00,1,20771818,185263
OK,134,23,696,134,2014-08-01T12:45:00,3,20772267,185263
OK,105,30,696,105,2014-08-01T12:50:00,4,20772716,185263
OK,102,31,696,102,2014-08-01T12:55:00,2,20773165,185263
OK,131,24,696,131,2014-08-01T13:00:00,4,20773614,185263
OK,129,24,696,129,2014-08-01T13:05:00,3,20774063,185263
OK,78,40,696,78,2014-08-01T13:10:00,2,20774512,185263
OK,80,39,696,80,2014-08-01T13:15:00,5,20774961,185263
OK,126,25,696,126,2014-08-01T13:20:00,8,20775410,185263
OK,115,27,696,115,2014-08-01T13:25:00,7,20775859,185263
OK,139,22,696,139,2014-08-01T13:30:00,3,20776308,185263
OK,155,20,696,155,2014-08-01T13:35:00,5,20776757,185263
OK,155,20,696,155,2014-08-01T13:40:00,1,20777206,185263
OK,166,19,696,166,2014-08-01T13:45:00,1,20777655,185263
OK,112,28,696,112,2014-08-01T13:50:00,4,20778104,185263
OK,89,35,696,89,2014-08-01T13:55:00,5,20778553,185263
OK,68,46,696,68,2014-08-01T14:00:00,5,20779002,185263
OK,85,37,696,85,2014-08-01T14:05:00,4,20779451,185263
OK,88,36,696,88,2014-08-01T14:10:00,3,20779900,185263
OK,152,20,696,152,2014-08-01T14:15:00,1,20780349,185263
OK,113,28,696,113,2014-08-01T14:20:00,2,20780798,185263
OK,135,23,696,135,2014-08-01T14:25:00,3,20781247,185263
OK,231,13,696,231,2014-08-01T14:30:00,4,20781696,185263
OK,157,20,696,157,2014-08-01T14:35:00,5,20782145,185263
OK,117,27,696,117,2014-08-01T14:40:00,2,20782594,185263
OK,141,22,696,141,2014-08-01T14:45:00,3,20783043,185263
OK,148,21,696,148,2014-08-01T14:50:00,3,20783492,185263
OK,125,25,696,125,2014-08-01T14:55:00,3,20783941,185263
OK,110,28,696,110,2014-08-01T15:00:00,4,20784390,185263
OK,95,33,696,95,2014-08-01T15:05:00,6,20784839,185263
OK,124,25,696,124,2014-08-01T15:10:00,4,20785288,185263
OK,101,31,696,101,2014-08-01T15:15:00,3,20785737,185263
OK,101,31,696,101,2014-08-01T15:20:00,5,20786186,185263
OK,102,31,696,102,2014-08-01T15:25:00,7,20786635,185263
OK,102,31,696,102,2014-08-01T15:30:00,6,20787084,185263
OK,109,29,696,109,2014-08-01T15:35:00,7,20787533,185263
OK,125,25,696,125,2014-08-01T15:40:00,4,20787982,185263
OK,134,23,696,134,2014-08-01T15:45:00,3,20788431,185263
OK,145,21,696,145,2014-08-01T15:50:00,2,20788880,185263
OK,142,22,696,142,2014-08-01T15:55:00,3,20789329,185263
OK,125,25,696,125,2014-08-01T16:00:00,2,20789778,185263
OK,71,44,696,71,2014-08-01T16:05:00,2,20790227,185263
OK,79,40,696,79,2014-08-01T16:10:00,2,20790676,185263
OK,73,43,696,73,2014-08-01T16:15:00,2,20791125,185263
OK,81,39,696,81,2014-08-01T16:20:00,4,20791574,185263
OK,113,28,696,113,2014-08-01T16:25:00,4,20792023,185263
OK,123,25,696,123,2014-08-01T16:30:00,3,20792472,185263
OK,76,41,696,76,2014-08-01T16:35:00,4,20792921,185263
OK,75,42,696,75,2014-08-01T16:40:00,3,20793370,185263
OK,163,19,696,163,2014-08-01T16:45:00,1,20793819,185263
OK,164,19,696,164,2014-08-01T16:50:00,2,20794268,185263
OK,73,43,696,73,2014-08-01T16:55:00,2,20794717,185263
OK,72,44,696,72,2014-08-01T17:00:00,3,20795166,185263
OK,64,49,696,64,2014-08-01T17:05:00,0,20795615,185263
OK,64,49,696,64,2014-08-01T17:10:00,0,20796064,185263
OK,121,26,696,121,2014-08-01T17:15:00,3,20796513,185263
OK,103,30,696,103,2014-08-01T17:20:00,4,20796962,185263
OK,86,36,696,86,2014-08-01T17:25:00,1,20797411,185263
OK,104,30,696,104,2014-08-01T17:30:00,1,20797860,185263
OK,104,30,696,104,2014-08-01T17:35:00,1,20798309,185263
OK,90,35,696,90,2014-08-01T17:40:00,2,20798758,185263
OK,124,25,696,124,2014-08-01T17:45:00,3,20799207,185263
OK,156,20,696,156,2014-08-01T17:50:00,1,20799656,185263
OK,156,20,696,156,2014-08-01T17:55:00,0,20800105,185263
OK,156,20,696,156,2014-08-01T18:00:00,0,20800554,185263
OK,103,30,696,103,2014-08-01T18:05:00,1,20801003,185263
OK,113,28,696,113,2014-08-01T18:10:00,2,20801452,185263
OK,124,25,696,124,2014-08-01T18:15:00,0,20801901,185263
OK,124,25,696,124,2014-08-01T18:20:00,0,20802350,185263
OK,90,35,696,90,2014-08-01T18:25:00,1,20802799,185263
OK,102,31,696,102,2014-08-01T18:30:00,2,20803248,185263
OK,84,37,696,84,2014-08-01T18:35:00,2,20803697,185263
OK,54,58,696,54,2014-08-01T18:40:00,1,20804146,185263
OK,79,40,696,79,2014-08-01T18:45:00,1,20804595,185263
OK,79,40,696,79,2014-08-01T18:50:00,1,20805044,185263
OK,79,40,696,79,2014-08-01T18:55:00,0,20805493,185263
OK,129,24,696,129,2014-08-01T19:00:00,1,20805942,185263
OK,129,24,696,129,2014-08-01T19:05:00,0,20806391,185263
OK,129,24,696,129,2014-08-01T19:10:00,0,20806840,185263
OK,129,24,696,129,2014-08-01T19:15:00,0,20807289,185263
OK,129,24,696,129,2014-08-01T19:20:00,0,20807738,185263
OK,129,24,696,129,2014-08-01T19:25:00,0,20808187,185263
OK,61,51,696,61,2014-08-01T19:30:00,1,20808636,185263
OK,61,51,696,61,2014-08-01T19:35:00,1,20809085,185263
OK,61,51,696,61,2014-08-01T19:40:00,0,20809534,185263
OK,94,33,696,94,2014-08-01T19:45:00,2,20809983,185263
OK,139,22,696,139,2014-08-01T19:50:00,3,20810432,185263
OK,146,21,696,146,2014-08-01T19:55:00,2,20810881,185263
OK,117,27,696,117,2014-08-01T20:00:00,1,20811327,185263
OK,117,27,696,117,2014-08-01T20:05:00,1,20811500,185263
OK,117,27,696,117,2014-08-01T20:10:00,0,20811703,185263
OK,119,26,696,119,2014-08-01T20:15:00,1,20811909,185263
OK,119,26,696,119,2014-08-01T20:20:00,1,20812118,185263
OK,119,26,696,119,2014-08-01T20:25:00,0,20812337,185263
OK,94,33,696,94,2014-08-01T20:30:00,1,20812551,185263
OK,94,33,696,94,2014-08-01T20:35:00,1,20812759,185263
OK,94,33,696,94,2014-08-01T20:40:00,0,20812962,185263
OK,45,70,696,45,2014-08-01T20:45:00,1,20813169,185263
OK,45,70,696,45,2014-08-01T20:50:00,0,20813380,185263
OK,45,70,696,45,2014-08-01T20:55:00,0,20813610,185263
OK,45,70,696,45,2014-08-01T21:00:00,0,20813848,185263
OK,45,70,696,45,2014-08-01T21:05:00,0,20814025,185263
OK,45,70,696,45,2014-08-01T21:10:00,0,20814264,185263
OK,45,70,696,45,2014-08-01T21:15:00,0,20814460,185263
OK,73,43,696,73,2014-08-01T21:20:00,3,20814667,185263
OK,65,48,696,65,2014-08-01T21:25:00,4,20814896,185263
OK,57,55,696,57,2014-08-01T21:30:00,1,20815172,185263
OK,57,55,696,57,2014-08-01T21:35:00,0,20815405,185263
OK,57,55,696,57,2014-08-01T21:40:00,0,20815629,185263
OK,57,55,696,57,2014-08-01T21:45:00,0,20815866,185263
OK,57,55,696,57,2014-08-01T21:50:00,0,20816107,185263
OK,57,55,696,57,2014-08-01T21:55:00,0,20816342,185263
OK,57,55,696,57,2014-08-01T22:00:00,0,20816610,185263
OK,57,55,696,57,2014-08-01T22:05:00,0,20817059,185263
OK,57,55,696,57,2014-08-01T22:10:00,0,20817381,185263
OK,57,55,696,57,2014-08-01T22:15:00,0,20817810,185263
OK,57,55,696,57,2014-08-01T22:20:00,0,20818100,185263
OK,57,55,696,57,2014-08-01T22:25:00,0,20818416,185263
OK,57,55,696,57,2014-08-01T22:30:00,0,20818750,185263
OK,57,55,696,57,2014-08-01T22:35:00,0,20819052,185263
OK,57,55,696,57,2014-08-01T22:40:00,0,20819234,185263
OK,57,55,696,57,2014-08-01T22:45:00,0,20819522,185263
OK,57,55,696,57,2014-08-01T22:50:00,0,20819757,185263
OK,117,27,696,117,2014-08-01T22:55:00,1,20820010,185263
OK,117,27,696,117,2014-08-01T23:00:00,1,20820186,185263
OK,117,27,696,117,2014-08-01T23:05:00,0,20820439,185263
OK,117,27,696,117,2014-08-01T23:10:00,0,20820669,185263
OK,117,27,696,117,2014-08-01T23:15:00,0,20820857,185263
OK,117,27,696,117,2014-08-01T23:20:00,0,20821107,185263
OK,117,27,696,117,2014-08-01T23:25:00,0,20821285,185263
OK,117,27,696,117,2014-08-01T23:30:00,0,20821511,185263
OK,117,27,696,117,2014-08-01T23:35:00,0,20821756,185263
OK,117,27,696,117,2014-08-01T23:40:00,0,20821935,185263
OK,117,27,696,117,2014-08-01T23:45:00,0,20822158,185263
OK,117,27,696,117,2014-08-01T23:50:00,0,20822425,185263
OK,117,27,696,117,2014-08-01T23:55:00,0,20822751,185263
OK,117,27,696,117,2014-08-02T00:00:00,0,20823049,185263
OK,117,27,696,117,2014-08-02T00:05:00,0,20823498,185263
OK,117,27,696,117,2014-08-02T00:10:00,0,20823947,185263
OK,132,24,696,132,2014-08-02T00:15:00,1,20824396,185263
OK,132,24,696,132,2014-08-02T00:20:00,0,20824845,185263
OK,132,24,696,132,2014-08-02T00:25:00,0,20825294,185263
OK,76,41,696,76,2014-08-02T00:30:00,1,20825743,185263
OK,76,41,696,76,2014-08-02T00:35:00,0,20826192,185263
OK,76,41,696,76,2014-08-02T00:40:00,0,20826641,185263
OK,76,41,696,76,2014-08-02T00:45:00,0,20827090,185263
OK,76,41,696,76,2014-08-02T00:50:00,0,20827539,185263
OK,76,41,696,76,2014-08-02T00:55:00,0,20827988,185263
OK,76,41,696,76,2014-08-02T01:00:00,0,20828437,185263
OK,76,41,696,76,2014-08-02T01:05:00,0,20828886,185263
OK,76,41,696,76,2014-08-02T01:10:00,0,20829335,185263
OK,76,41,696,76,2014-08-02T01:15:00,0,20829784,185263
OK,76,41,696,76,2014-08-02T01:20:00,0,20830233,185263
OK,76,41,696,76,2014-08-02T01:25:00,0,20830682,185263
OK,76,41,696,76,2014-08-02T01:30:00,0,20831131,185263
OK,76,41,696,76,2014-08-02T01:35:00,0,20831580,185263
OK,76,41,696,76,2014-08-02T01:40:00,0,20832029,185263
OK,76,41,696,76,2014-08-02T01:45:00,0,20832478,185263
OK,76,41,696,76,2014-08-02T01:50:00,0,20832927,185263
OK,76,41,696,76,2014-08-02T01:55:00,0,20833376,185263
OK,76,41,696,76,2014-08-02T02:00:00,0,20833825,185263
OK,76,41,696,76,2014-08-02T02:05:00,0,20834274,185263
OK,76,41,696,76,2014-08-02T02:10:00,0,20834723,185263
OK,92,34,696,92,2014-08-02T02:15:00,1,20835172,185263
OK,92,34,696,92,2014-08-02T02:20:00,0,20835621,185263
OK,42,75,696,42,2014-08-02T02:25:00,0,20836070,185263
OK,42,75,696,42,2014-08-02T02:30:00,0,20836519,185263
OK,42,75,696,42,2014-08-02T02:35:00,0,20836968,185263
OK,42,75,696,42,2014-08-02T02:40:00,0,20837417,185263
OK,42,75,696,42,2014-08-02T02:45:00,0,20837866,185263
OK,42,75,696,42,2014-08-02T02:50:00,0,20838315,185263
OK,42,75,696,42,2014-08-02T02:55:00,0,20838764,185263
OK,42,75,696,42,2014-08-02T03:00:00,0,20839213,185263
OK,42,75,696,42,2014-08-02T03:05:00,0,20839662,185263
OK,42,75,696,42,2014-08-02T03:10:00,0,20840111,185263
OK,42,75,696,42,2014-08-02T03:15:00,0,20840560,185263
OK,42,75,696,42,2014-08-02T03:20:00,0,20841009,185263
OK,42,75,696,42,2014-08-02T03:25:00,0,20841458,185263
OK,42,75,696,42,2014-08-02T03:30:00,0,20841907,185263
OK,42,75,696,42,2014-08-02T03:35:00,0,20842356,185263
OK,42,75,696,42,2014-08-02T03:40:00,0,20842805,185263
OK,42,75,696,42,2014-08-02T03:45:00,0,20843254,185263
OK,42,75,696,42,2014-08-02T03:50:00,0,20843703,185263
OK,42,75,696,42,2014-08-02T03:55:00,0,20844152,185263
OK,42,75,696,42,2014-08-02T04:00:00,0,20844601,185263
OK,42,75,696,42,2014-08-02T04:05:00,0,20844732,185263
OK,42,75,696,42,2014-08-02T04:10:00,0,20845062,185263
OK,42,75,696,42,2014-08-02T04:15:00,0,20845242,185263
OK,42,75,696,42,2014-08-02T04:20:00,0,20845598,185263
OK,42,75,696,42,2014-08-02T04:25:00,0,20845965,185263
OK,42,75,696,42,2014-08-02T04:30:00,0,20846154,185263
OK,42,75,696,42,2014-08-02T04:35:00,0,20846521,185263
OK,42,75,696,42,2014-08-02T04:40:00,0,20846904,185263
OK,42,75,696,42,2014-08-02T04:45:00,0,20847163,185263
OK,42,75,696,42,2014-08-02T04:50:00,0,20847529,185263
OK,42,75,696,42,2014-08-02T04:55:00,0,20847886,185263
OK,42,75,696,42,2014-08-02T05:00:00,0,20848246,185263
OK,42,75,696,42,2014-08-02T05:05:00,0,20848410,185263
OK,42,75,696,42,2014-08-02T05:10:00,0,20848764,185263
OK,42,75,696,42,2014-08-02T05:15:00,0,20848956,185263
OK,42,75,696,42,2014-08-02T05:20:00,0,20849300,185263
OK,99,32,696,99,2014-08-02T05:30:00,1,20849825,185263
OK,99,32,696,99,2014-08-02T05:35:00,0,20850097,185263
OK,99,32,696,99,2014-08-02T05:40:00,0,20850390,185263
OK,99,32,696,99,2014-08-02T05:45:00,0,20850691,185263
OK,99,32,696,99,2014-08-02T05:50:00,0,20851049,185263
OK,99,32,696,99,2014-08-02T05:55:00,0,20851303,185263
OK,99,32,696,99,2014-08-02T06:00:00,0,20851606,185263
OK,99,32,696,99,2014-08-02T06:05:00,0,20852055,185263
OK,99,32,696,99,2014-08-02T06:10:00,0,20852504,185263
OK,99,32,696,99,2014-08-02T06:15:00,0,20852953,185263
OK,99,32,696,99,2014-08-02T06:20:00,0,20853402,185263
OK,99,32,696,99,2014-08-02T06:25:00,0,20853851,185263
OK,99,32,696,99,2014-08-02T06:30:00,0,20854300,185263
OK,136,23,696,136,2014-08-02T06:35:00,1,20854749,185263
OK,136,23,696,136,2014-08-02T06:40:00,0,20855198,185263
OK,102,31,696,102,2014-08-02T06:45:00,3,20855647,185263
OK,102,31,696,102,2014-08-02T06:50:00,1,20856096,185263
OK,102,31,696,102,2014-08-02T06:55:00,0,20856545,185263
OK,102,31,696,102,2014-08-02T07:00:00,0,20856994,185263
OK,102,31,696,102,2014-08-02T07:05:00,0,20857443,185263
OK,103,30,696,103,2014-08-02T07:10:00,1,20857892,185263
OK,103,30,696,103,2014-08-02T07:15:00,0,20858341,185263
OK,100,31,696,100,2014-08-02T07:20:00,1,20858790,185263
OK,100,31,696,100,2014-08-02T07:25:00,0,20859239,185263
OK,66,48,696,66,2014-08-02T07:30:00,2,20859688,185263
OK,64,49,696,64,2014-08-02T07:35:00,3,20860137,185263
OK,64,49,696,64,2014-08-02T07:40:00,1,20860586,185263
OK,64,49,696,64,2014-08-02T07:45:00,0,20861035,185263
OK,100,31,696,100,2014-08-02T07:50:00,1,20861484,185263
OK,100,31,696,100,2014-08-02T07:55:00,1,20861933,185263
OK,112,28,696,112,2014-08-02T08:00:00,1,20862382,185263
OK,74,42,696,74,2014-08-02T08:05:00,1,20862831,185263
OK,74,42,696,74,2014-08-02T08:10:00,0,20863280,185263
OK,74,42,696,74,2014-08-02T08:15:00,0,20863729,185263
OK,134,23,696,134,2014-08-02T08:20:00,1,20864178,185263
OK,134,23,696,134,2014-08-02T08:25:00,1,20864627,185263
OK,146,21,696,146,2014-08-02T08:30:00,1,20865076,185263
OK,146,21,696,146,2014-08-02T08:35:00,2,20865525,185263
OK,115,27,696,115,2014-08-02T08:40:00,3,20865974,185263
OK,114,27,696,114,2014-08-02T08:45:00,4,20866423,185263
OK,76,41,696,76,2014-08-02T08:50:00,3,20866872,185263
OK,68,46,696,68,2014-08-02T08:55:00,1,20867321,185263
OK,121,26,696,121,2014-08-02T09:00:00,4,20867770,185263
OK,119,26,696,119,2014-08-02T09:05:00,5,20868219,185263
OK,61,51,696,61,2014-08-02T09:10:00,1,20868668,185263
OK,144,22,696,144,2014-08-02T09:15:00,1,20869117,185263
OK,144,22,696,144,2014-08-02T09:20:00,1,20869566,185263
OK,143,22,696,143,2014-08-02T09:25:00,2,20870015,185263
OK,132,24,696,132,2014-08-02T09:30:00,3,20870464,185263
OK,109,29,696,109,2014-08-02T09:35:00,2,20870913,185263
OK,86,36,696,86,2014-08-02T09:40:00,1,20871362,185263
OK,105,30,696,105,2014-08-02T09:45:00,4,20871811,185263
OK,119,26,696,119,2014-08-02T09:50:00,8,20872260,185263
OK,142,22,696,142,2014-08-02T09:55:00,3,20872709,185263
OK,139,22,696,139,2014-08-02T10:00:00,2,20873158,185263
OK,137,23,696,137,2014-08-02T10:05:00,1,20873607,185263
OK,119,26,696,119,2014-08-02T10:10:00,3,20874056,185263
OK,110,28,696,110,2014-08-02T10:15:00,3,20874505,185263
OK,84,37,696,84,2014-08-02T10:20:00,2,20874954,185263
OK,85,37,696,85,2014-08-02T10:25:00,2,20875403,185263
OK,110,28,696,110,2014-08-02T10:30:00,4,20875852,185263
OK,89,35,696,89,2014-08-02T10:35:00,6,20876301,185263
OK,89,35,696,89,2014-08-02T10:40:00,4,20876750,185263
OK,152,20,696,152,2014-08-02T10:45:00,1,20877199,185263
OK,133,23,696,133,2014-08-02T10:50:00,1,20877648,185263
OK,165,19,696,165,2014-08-02T10:55:00,3,20878097,185263
OK,184,17,696,184,2014-08-02T11:00:00,2,20878546,185263
OK,165,19,696,165,2014-08-02T11:05:00,0,20878995,185263
OK,165,19,696,165,2014-08-02T11:10:00,0,20879444,185263
OK,165,19,696,165,2014-08-02T11:15:00,0,20879893,185263
OK,83,38,696,83,2014-08-02T11:20:00,2,20880342,185263
OK,108,29,696,108,2014-08-02T11:25:00,6,20880791,185263
OK,147,21,696,147,2014-08-02T11:30:00,2,20881240,185263
OK,154,20,696,154,2014-08-02T11:35:00,3,20881689,185263
OK,125,25,696,125,2014-08-02T11:40:00,4,20882138,185263
OK,52,60,696,52,2014-08-02T11:45:00,1,20882587,185263
OK,120,26,696,120,2014-08-02T11:50:00,1,20883036,185263
OK,120,26,696,120,2014-08-02T11:55:00,1,20883485,185263
OK,120,26,696,120,2014-08-02T12:00:00,0,20883934,185263
OK,106,29,696,106,2014-08-02T12:05:00,2,20884383,185263
OK,108,29,696,108,2014-08-02T12:10:00,5,20884832,185263
OK,124,25,696,124,2014-08-02T12:15:00,6,20885281,185263
OK,128,24,696,128,2014-08-02T12:20:00,4,20885730,185263
OK,90,35,696,90,2014-08-02T12:25:00,5,20886179,185263
OK,101,31,696,101,2014-08-02T12:30:00,1,20886628,185263
OK,101,31,696,101,2014-08-02T12:35:00,0,20887077,185263
OK,74,42,696,74,2014-08-02T12:40:00,3,20887526,185263
OK,69,45,696,69,2014-08-02T12:45:00,7,20887975,185263
OK,55,57,696,55,2014-08-02T12:50:00,5,20888424,185263
OK,96,33,696,96,2014-08-02T12:55:00,0,20888873,185263
OK,147,21,696,147,2014-08-02T13:00:00,1,20889322,185263
OK,105,30,696,105,2014-08-02T13:05:00,2,20889771,185263
OK,105,30,696,105,2014-08-02T13:10:00,2,20890220,185263
OK,98,32,696,98,2014-08-02T13:15:00,2,20890669,185263
OK,144,22,696,144,2014-08-02T13:20:00,3,20891118,185263
OK,144,22,696,144,2014-08-02T13:25:00,3,20891567,185263
OK,126,25,696,126,2014-08-02T13:30:00,2,20892016,185263
OK,126,25,696,126,2014-08-02T13:35:00,2,20892465,185263
OK,67,47,696,67,2014-08-02T13:40:00,1,20892914,185263
OK,67,47,696,67,2014-08-02T13:45:00,3,20893363,185263
OK,102,31,696,102,2014-08-02T13:50:00,3,20893812,185263
OK,102,31,696,102,2014-08-02T13:55:00,3,20894261,185263
OK,108,29,696,108,2014-08-02T14:00:00,3,20894710,185263
OK,139,22,696,139,2014-08-02T14:05:00,2,20895159,185263
OK,115,27,696,115,2014-08-02T14:10:00,4,20895608,185263
OK,95,33,696,95,2014-08-02T14:15:00,2,20896057,185263
OK,182,17,696,182,2014-08-02T14:20:00,1,20896506,185263
OK,125,25,696,125,2014-08-02T14:25:00,1,20896955,185263
OK,137,23,696,137,2014-08-02T14:30:00,2,20897404,185263
OK,137,23,696,137,2014-08-02T14:35:00,2,20897853,185263
OK,137,23,696,137,2014-08-02T14:40:00,0,20898302,185263
OK,137,23,696,137,2014-08-02T14:45:00,0,20898751,185263
OK,125,25,696,125,2014-08-02T14:50:00,1,20899200,185263
OK,125,25,696,125,2014-08-02T14:55:00,1,20899649,185263
OK,125,25,696,125,2014-08-02T15:00:00,0,20900098,185263
OK,125,25,696,125,2014-08-02T15:05:00,0,20900547,185263
OK,125,25,696,125,2014-08-02T15:10:00,0,20900996,185263
OK,125,25,696,125,2014-08-02T15:15:00,0,20901445,185263
OK,152,20,696,152,2014-08-02T15:20:00,2,20901894,185263
OK,152,20,696,152,2014-08-02T15:25:00,2,20902343,185263
OK,59,53,696,59,2014-08-02T15:30:00,1,20902792,185263
OK,59,53,696,59,2014-08-02T15:35:00,1,20903241,185263
OK,164,19,696,164,2014-08-02T15:40:00,1,20903690,185263
OK,138,22,696,138,2014-08-02T15:45:00,2,20904139,185263
OK,112,28,696,112,2014-08-02T15:50:00,1,20904588,185263
OK,112,28,696,112,2014-08-02T15:55:00,0,20905037,185263
OK,93,34,696,93,2014-08-02T16:00:00,1,20905486,185263
OK,93,34,696,93,2014-08-02T16:05:00,0,20905935,185263
OK,93,34,696,93,2014-08-02T16:10:00,0,20906384,185263
OK,93,34,696,93,2014-08-02T16:15:00,0,20906833,185263
OK,66,48,696,66,2014-08-02T16:20:00,1,20907282,185263
OK,71,44,696,71,2014-08-02T16:25:00,1,20907731,185263
OK,71,44,696,71,2014-08-02T16:30:00,1,20908180,185263
OK,147,21,696,147,2014-08-02T16:35:00,1,20908629,185263
OK,133,23,696,133,2014-08-02T16:40:00,2,20909078,185263
OK,107,29,696,107,2014-08-02T16:45:00,2,20909527,185263
OK,94,33,696,94,2014-08-02T16:50:00,1,20909976,185263
OK,94,33,696,94,2014-08-02T16:55:00,0,20910425,185263
OK,94,33,696,94,2014-08-02T17:00:00,0,20910874,185263
OK,146,21,696,146,2014-08-02T17:05:00,1,20911323,185263
OK,146,21,696,146,2014-08-02T17:10:00,1,20911772,185263
OK,146,21,696,146,2014-08-02T17:15:00,0,20912221,185263
OK,146,21,696,146,2014-08-02T17:20:00,0,20912670,185263
OK,146,21,696,146,2014-08-02T17:25:00,0,20913119,185263
OK,82,38,696,82,2014-08-02T17:30:00,1,20913568,185263
OK,82,38,696,82,2014-08-02T17:35:00,0,20914017,185263
OK,82,38,696,82,2014-08-02T17:40:00,0,20914466,185263
OK,143,22,696,143,2014-08-02T17:45:00,1,20914915,185263
OK,143,22,696,143,2014-08-02T17:50:00,0,20915364,185263
OK,143,22,696,143,2014-08-02T17:55:00,0,20915813,185263
OK,60,52,696,60,2014-08-02T18:00:00,1,20916262,185263
OK,60,52,696,60,2014-08-02T18:05:00,0,20916711,185263
OK,141,22,696,141,2014-08-02T18:10:00,1,20917160,185263
OK,141,22,696,141,2014-08-02T18:15:00,1,20917609,185263
OK,141,22,696,141,2014-08-02T18:20:00,0,20918058,185263
OK,141,22,696,141,2014-08-02T18:25:00,0,20918507,185263
OK,141,22,696,141,2014-08-02T18:30:00,0,20918956,185263
OK,141,22,696,141,2014-08-02T18:35:00,0,20919405,185263
OK,141,22,696,141,2014-08-02T18:40:00,0,20919854,185263
OK,141,22,696,141,2014-08-02T18:45:00,0,20920303,185263
OK,140,22,696,140,2014-08-02T18:50:00,1,20920752,185263
OK,140,22,696,140,2014-08-02T18:55:00,0,20921201,185263
OK,141,22,696,141,2014-08-02T19:00:00,1,20921650,185263
OK,141,22,696,141,2014-08-02T19:05:00,0,20922099,185263
OK,141,22,696,141,2014-08-02T19:10:00,0,20922548,185263
OK,95,33,696,95,2014-08-02T19:15:00,1,20922997,185263
OK,95,33,696,95,2014-08-02T19:20:00,1,20923446,185263